Regional Weather Roundup
Issued by NWS

Home | Current Version | Previous Version | Text Only | Print | Product List | Glossary On
Versions: 1 2 3 4 5 6 7 8 9 10 11 12 13 14 15 16 17 18 19 20 21 22 23 24 25 26 27 28 29 30 31 32 33 34 35 36 37 38 39 40 41 42 43 44 45 46 47 48 49 50
000
ASUS44 KJAN 252010
RWRMS

MISSISSIPPI HOURLY WEATHER ROUNDUP
NATIONAL WEATHER SERVICE JACKSON MS
300 PM CDT THU MAY 25 2017

NOTE: "FAIR: INDICATES FEW OR NO CLOUDS BELOW 12,000 FEET WITH NO
SIGNIFICANT WEATHER AND/OR OBSTRUCTIONS TO VISIBILITY.

MSZ001>002-007>008-010>013-018>021-025>028-034>036-252100-
NORTHWEST MISSISSIPPI

CITY           SKY/WX    TMP DP  RH WIND       PRES   REMARKS
BATESVILLE     FAIR      74  52  46 SW8       29.83F
GREENWOOD      SUNNY     77  56  48 VRB6      29.83F
GREENVILLE     SUNNY     78  52  40 S12G18    29.81F
OLIVE BRANCH   MOSUNNY  N/A N/A N/A SW9G18    29.79F
WINONA         FAIR      73  51  46 SW5       29.84F
$$

MSZ003>006-009-014>017-022>024-029>033-037>039-252100-
NORTHEAST MISSISSIPPI

CITY           SKY/WX    TMP DP  RH WIND       PRES   REMARKS
COLUMBUS AFB   MOSUNNY   75  58  54 W13       29.83F
CORINTH        FAIR      73  52  46 W8G16     29.81F
TUPELO         SUNNY     75  49  39 SW10      29.82F
$$

MSZ040-058-252100-
CENTRAL MISSISSIPPI

CITY           SKY/WX    TMP DP  RH WIND       PRES   REMARKS
JACKSON INTL   SUNNY     77  53  43 VRB6      29.86F
JACKSON HAWKNS SUNNY     77  52  41 SW7       29.86F
MERIDIAN KEY   SUNNY     79  51  37 VRB6G17   29.85F
MERIDIAN NAS   MOSUNNY   79  48  33 NW12      29.85F
VICKSBURG VKS  CLEAR     79  54  41 SW7       29.82F
$$

MSZ059>079-252100-
SOUTH MISSISSIPPI

CITY           SKY/WX    TMP DP  RH WIND       PRES   REMARKS
COLUMBIA       FAIR      81  54  39 VRB5      29.89F
HATTIESBURG    SUNNY     79  50  36 W9        29.87F
MCCOMB         SUNNY     79  51  37 VRB5      29.86F
NATCHEZ        SUNNY     80  56  43 SW12      29.85
PINE BELT      NOT AVBL
$$

MSZ080>082-252100-
COASTAL MISSISSIPPI

CITY           SKY/WX    TMP DP  RH WIND       PRES   REMARKS
BILOXI         SUNNY     82  54  38 W5        29.87F
PASCAGOULA     SUNNY     81  47  30 VRB3      29.87F
GULFPORT       SUNNY     82  53  36 NW10G22   29.86F
$$

LAZ007>009-015>016-023>026-252100-
NORTHEAST LOUISIANA

CITY           SKY/WX    TMP DP  RH WIND       PRES   REMARKS
BASTROP        FAIR      80  56  43 S8        29.81F
TALLULAH/VBURG SUNNY     76  56  49 S10       29.84F
VIDALIA        FAIR      77  59  52 SE13      29.83F
$$



USA.gov is the U.S. government's official web portal to all federal, state and local government web resources and services.